This is the latest recevied weather packets stored in our database for station/object KI7MOQ. If no packets are shown the sender has not sent any weather packets the latest 10 day(s).
| Time | Temp. | Humidity | Pressure | Rain* | Wind** | Luminosity | Snow |
|---|---|---|---|---|---|---|---|
| 1777910098 | 15° C | 78% | 1015.9 hPa | 0 mm | - | 63 W/m² | - |
| 1777909796 | 15° C | 78% | 1015.8 hPa | 0 mm | - | 74 W/m² | - |
| 1777909493 | 15° C | 78% | 1015.8 hPa | 0 mm | - | 104 W/m² | - |
| 1777909190 | 15° C | 78% | 1015.7 hPa | 0 mm | - | 77 W/m² | - |
| 1777908888 | 15° C | 78% | 1015.8 hPa | 0 mm | - | 76 W/m² | - |
| 1777908586 | 14.44° C | 80% | 1015.8 hPa | 0 mm | - | 121 W/m² | - |
| 1777908282 | 15° C | 79% | 1015.8 hPa | 0 mm | - | 74 W/m² | - |
| 1777907978 | 14.44° C | 80% | 1015.6 hPa | 0 mm | - | 62 W/m² | - |
| 1777907674 | 14.44° C | 79% | 1015.6 hPa | 0 mm | - | 55 W/m² | - |
| 1777907369 | 14.44° C | 79% | 1015.5 hPa | 0 mm | - | 42 W/m² | - |
| 1777907066 | 14.44° C | 80% | 1015.2 hPa | 0 mm | - | 29 W/m² | - |
| 1777906764 | 14.44° C | 80% | 1015.5 hPa | 0 mm | - | 29 W/m² | - |
| 1777906460 | 14.44° C | 80% | 1015.2 hPa | 0 mm | - | 34 W/m² | - |
| 1777906157 | 14.44° C | 80% | 1015.2 hPa | 0 mm | - | 22 W/m² | - |
| 1777905854 | 14.44° C | 80% | 1015.2 hPa | 0 mm | - | 19 W/m² | - |
| 1777905551 | 13.89° C | 81% | 1015.1 hPa | 0 mm | - | 20 W/m² | - |
| 1777905248 | 13.89° C | 81% | 1015.1 hPa | 0 mm | - | 17 W/m² | - |
| 1777904945 | 13.89° C | 82% | 1015.1 hPa | 0 mm | - | 17 W/m² | - |
| 1777904643 | 13.89° C | 82% | 1015 hPa | 0 mm | - | 15 W/m² | - |
| 1777904339 | 13.89° C | 83% | 1015 hPa | 0 mm | - | 14 W/m² | - |
| 1777904036 | 13.33° C | 83% | 1014.9 hPa | 0 mm | - | 14 W/m² | - |
| 1777903733 | 13.89° C | 83% | 1014.7 hPa | 0 mm | - | 13 W/m² | - |
| 1777903429 | 13.89° C | 83% | 1014.7 hPa | 0 mm | - | 12 W/m² | - |
| 1777903125 | 13.89° C | 83% | 1014.6 hPa | 0 mm | - | 11 W/m² | - |
| 1777902822 | 13.89° C | 82% | 1014.6 hPa | 0 mm | - | 11 W/m² | - |
* Rain latest hour (hover to see other rain measurements)
** Current wind speed in m/s (hover to see current wind gust speed)